Time,TemperatureF,DewpointF,PressureIn,WindDirection,WindDirectionDegrees,WindSpeedMPH,WindSpeedGustMPH,Humidity,HourlyPrecipIn,Conditions,Clouds,dailyrainin,SolarRadiationWatts/m^2,SoftwareType,DateUTC
2013-04-22 00:01:00,32.0,31.0,-100.00,NNE,30,2.0,4.0,96,0.00,,,0.24,0.000000,,2013-04-22 08:01:00,
2013-04-22 00:11:00,32.0,31.0,-100.00,NNE,30,2.0,4.0,96,0.00,,,0.24,0.000000,,2013-04-22 08:11:00,
2013-04-22 00:21:00,32.0,31.0,-100.00,NNE,30,2.0,4.0,96,0.00,,,0.24,0.000000,,2013-04-22 08:21:00,
2013-04-22 00:52:00,32.0,31.0,-100.00,NNE,33,2.0,4.0,97,0.00,,,0.24,0.000000,,2013-04-22 08:52:00,
2013-04-22 01:01:00,32.0,31.0,-100.00,NNE,33,2.0,4.0,97,0.00,,,0.24,0.000000,,2013-04-22 09:01:00,
2013-04-22 01:11:00,32.0,31.0,-100.00,NNE,33,2.0,4.0,97,0.00,,,0.24,0.000000,,2013-04-22 09:11:00,
2013-04-22 01:21:00,32.0,31.0,-100.00,NNE,33,2.0,4.0,97,0.00,,,0.24,0.000000,,2013-04-22 09:21:00,
2013-04-22 01:52:00,30.0,29.0,-100.00,NNE,25,0.0,2.0,97,0.00,,,0.24,0.000000,,2013-04-22 09:52:00,
2013-04-22 02:03:00,30.0,29.0,-100.00,NNE,25,0.0,2.0,97,0.00,,,0.24,0.000000,,2013-04-22 10:03:00,
2013-04-22 02:12:00,30.0,29.0,-100.00,NNE,25,0.0,2.0,97,0.00,,,0.24,0.000000,,2013-04-22 10:12:00,
2013-04-22 02:22:00,30.0,29.0,-100.00,NNE,25,0.0,2.0,97,0.00,,,0.24,0.000000,,2013-04-22 10:22:00,
2013-04-22 02:52:00,29.0,29.0,-100.00,NNW,340,0.0,0.0,98,0.00,,,0.24,0.000000,,2013-04-22 10:52:00,
2013-04-22 03:02:00,29.0,29.0,-100.00,NNW,340,0.0,0.0,98,0.00,,,0.24,0.000000,,2013-04-22 11:02:00,
2013-04-22 03:12:00,29.0,29.0,-100.00,NNW,340,0.0,0.0,98,0.00,,,0.24,0.000000,,2013-04-22 11:12:00,
2013-04-22 03:22:00,29.0,29.0,-100.00,NNW,340,0.0,0.0,98,0.00,,,0.24,0.000000,,2013-04-22 11:22:00,
2013-04-22 03:52:00,27.0,26.0,-100.00,NNE,23,1.0,2.0,97,0.00,,,0.24,0.000000,,2013-04-22 11:52:00,
2013-04-22 04:01:00,27.0,26.0,-100.00,NNE,23,1.0,2.0,97,0.00,,,0.24,0.000000,,2013-04-22 12:01:00,
2013-04-22 04:12:00,27.0,26.0,-100.00,NNE,23,1.0,2.0,97,0.00,,,0.24,0.000000,,2013-04-22 12:12:00,
2013-04-22 04:21:00,27.0,26.0,-100.00,NNE,23,1.0,2.0,97,0.00,,,0.24,0.000000,,2013-04-22 12:21:00,
2013-04-22 04:52:00,26.0,25.0,-100.00,East,91,1.0,3.0,97,0.00,,,0.24,0.000000,,2013-04-22 12:52:00,
2013-04-22 05:01:00,26.0,25.0,-100.00,East,91,1.0,3.0,97,0.00,,,0.24,0.000000,,2013-04-22 13:01:00,
2013-04-22 05:11:00,26.0,25.0,-100.00,East,91,1.0,3.0,97,0.00,,,0.24,0.000000,,2013-04-22 13:11:00,
2013-04-22 05:22:00,26.0,25.0,-100.00,East,91,1.0,3.0,97,0.00,,,0.24,0.000000,,2013-04-22 13:22:00,
2013-04-22 05:53:00,25.0,24.0,-100.00,NNW,339,0.0,4.0,96,0.00,,,0.24,0.000000,,2013-04-22 13:53:00,
2013-04-22 06:02:00,25.0,24.0,-100.00,NNW,339,0.0,4.0,96,0.00,,,0.24,0.000000,,2013-04-22 14:02:00,
2013-04-22 06:11:00,25.0,24.0,-100.00,NNW,339,0.0,4.0,96,0.00,,,0.24,0.000000,,2013-04-22 14:11:00,
2013-04-22 06:21:00,25.0,24.0,-100.00,NNW,339,0.0,4.0,96,0.00,,,0.24,0.000000,,2013-04-22 14:21:00,
2013-04-22 06:52:00,24.0,23.0,-100.00,NNE,32,1.0,3.0,95,0.00,,,0.24,1.000000,,2013-04-22 14:52:00,
2013-04-22 07:01:00,24.0,23.0,-100.00,NNE,32,1.0,3.0,95,0.00,,,0.24,1.000000,,2013-04-22 15:01:00,
2013-04-22 07:11:00,24.0,23.0,-100.00,NNE,32,1.0,3.0,95,0.00,,,0.24,1.000000,,2013-04-22 15:11:00,
2013-04-22 07:22:00,24.0,23.0,-100.00,NNE,32,1.0,3.0,95,0.00,,,0.24,1.000000,,2013-04-22 15:22:00,
2013-04-22 07:53:00,24.0,23.0,-100.00,NE,39,2.0,4.0,94,0.00,,,0.24,13.000000,,2013-04-22 15:53:00,
2013-04-22 08:02:00,24.0,23.0,-100.00,NE,39,2.0,4.0,94,0.00,,,0.24,13.000000,,2013-04-22 16:02:00,
2013-04-22 08:12:00,24.0,23.0,-100.00,NE,39,2.0,4.0,94,0.00,,,0.24,13.000000,,2013-04-22 16:12:00,
2013-04-22 08:23:00,24.0,23.0,-100.00,NE,39,2.0,4.0,94,0.00,,,0.24,13.000000,,2013-04-22 16:23:00,
2013-04-22 08:52:00,31.0,28.0,-100.00,North,360,0.0,3.0,90,0.00,,,0.24,109.000000,,2013-04-22 16:52:00,
2013-04-22 09:02:00,31.0,28.0,-100.00,North,360,0.0,3.0,90,0.00,,,0.24,109.000000,,2013-04-22 17:02:00,
2013-04-22 09:12:00,31.0,28.0,-100.00,North,360,0.0,3.0,90,0.00,,,0.24,109.000000,,2013-04-22 17:12:00,
2013-04-22 09:22:00,31.0,28.0,-100.00,North,360,0.0,3.0,90,0.00,,,0.24,109.000000,,2013-04-22 17:22:00,
2013-04-22 09:52:00,35.0,31.0,-100.00,NE,42,4.0,7.0,84,0.00,,,0.24,213.000000,,2013-04-22 17:52:00,
2013-04-22 10:01:00,35.0,31.0,-100.00,NE,42,4.0,7.0,84,0.00,,,0.24,213.000000,,2013-04-22 18:01:00,
2013-04-22 10:12:00,35.0,31.0,-100.00,NE,42,4.0,7.0,84,0.00,,,0.24,213.000000,,2013-04-22 18:12:00,
2013-04-22 10:21:00,35.0,31.0,-100.00,NE,42,4.0,7.0,84,0.00,,,0.24,213.000000,,2013-04-22 18:21:00,
2013-04-22 10:52:00,41.0,33.0,-100.00,NE,37,4.0,6.0,72,0.00,,,0.24,437.000000,,2013-04-22 18:52:00,
2013-04-22 11:01:00,41.0,33.0,-100.00,NE,37,4.0,6.0,72,0.00,,,0.24,437.000000,,2013-04-22 19:01:00,
2013-04-22 11:11:00,41.0,33.0,-100.00,NE,37,4.0,6.0,72,0.00,,,0.24,437.000000,,2013-04-22 19:11:00,
2013-04-22 11:21:00,41.0,33.0,-100.00,NE,37,4.0,6.0,72,0.00,,,0.24,437.000000,,2013-04-22 19:21:00,
2013-04-22 11:52:00,43.0,31.0,-100.00,NE,45,7.0,13.0,63,0.00,,,0.24,515.000000,,2013-04-22 19:52:00,
2013-04-22 12:02:00,43.0,31.0,-100.00,NE,45,7.0,13.0,63,0.00,,,0.24,515.000000,,2013-04-22 20:02:00,
2013-04-22 12:11:00,43.0,31.0,-100.00,NE,45,7.0,13.0,63,0.00,,,0.24,515.000000,,2013-04-22 20:11:00,
2013-04-22 12:22:00,43.0,31.0,-100.00,NE,45,7.0,13.0,63,0.00,,,0.24,515.000000,,2013-04-22 20:22:00,
2013-04-22 12:52:00,47.0,29.0,-100.00,NE,37,6.0,11.0,49,0.00,,,0.24,639.000000,,2013-04-22 20:52:00,
2013-04-22 13:02:00,47.0,29.0,-100.00,NE,37,6.0,11.0,49,0.00,,,0.24,639.000000,,2013-04-22 21:02:00,
2013-04-22 13:11:00,47.0,29.0,-100.00,NE,37,6.0,11.0,49,0.00,,,0.24,639.000000,,2013-04-22 21:11:00,
2013-04-22 13:21:00,47.0,29.0,-100.00,NE,37,6.0,11.0,49,0.00,,,0.24,639.000000,,2013-04-22 21:21:00,
2013-04-22 13:53:00,52.0,29.0,-100.00,North,357,2.0,10.0,41,0.00,,,0.24,699.000000,,2013-04-22 21:53:00,
2013-04-22 14:02:00,52.0,29.0,-100.00,North,357,2.0,10.0,41,0.00,,,0.24,699.000000,,2013-04-22 22:02:00,
2013-04-22 14:12:00,52.0,29.0,-100.00,North,357,2.0,10.0,41,0.00,,,0.24,699.000000,,2013-04-22 22:12:00,
2013-04-22 14:22:00,52.0,29.0,-100.00,North,357,2.0,10.0,41,0.00,,,0.24,699.000000,,2013-04-22 22:22:00,
2013-04-22 14:52:00,52.0,29.0,-100.00,NNE,12,3.0,9.0,41,0.00,,,0.24,706.000000,,2013-04-22 22:52:00,
2013-04-22 15:02:00,52.0,29.0,-100.00,NNE,12,3.0,9.0,41,0.00,,,0.24,706.000000,,2013-04-22 23:02:00,
2013-04-22 15:11:00,52.0,29.0,-100.00,NNE,12,3.0,9.0,41,0.00,,,0.24,706.000000,,2013-04-22 23:11:00,
2013-04-22 15:21:00,52.0,29.0,-100.00,NNE,12,3.0,9.0,41,0.00,,,0.24,706.000000,,2013-04-22 23:21:00,
2013-04-22 15:52:00,54.0,29.0,-100.00,ENE,72,3.0,11.0,38,0.00,,,0.23,680.000000,,2013-04-22 23:52:00,
2013-04-22 16:01:00,54.0,29.0,-100.00,ENE,72,3.0,11.0,38,0.00,,,0.23,680.000000,,2013-04-23 00:01:00,
2013-04-22 16:12:00,54.0,29.0,-100.00,ENE,72,3.0,11.0,38,0.00,,,0.23,680.000000,,2013-04-23 00:12:00,
2013-04-22 16:21:00,54.0,29.0,-100.00,ENE,72,3.0,11.0,38,0.00,,,0.23,680.000000,,2013-04-23 00:21:00,
2013-04-22 16:52:00,53.0,27.0,-100.00,NNE,21,6.0,13.0,37,0.00,,,0.23,622.000000,,2013-04-23 00:52:00,
2013-04-22 17:01:00,53.0,27.0,-100.00,NNE,21,6.0,13.0,37,0.00,,,0.23,622.000000,,2013-04-23 01:01:00,
2013-04-22 17:11:00,53.0,27.0,-100.00,NNE,21,6.0,13.0,37,0.00,,,0.23,622.000000,,2013-04-23 01:11:00,
2013-04-22 17:21:00,53.0,27.0,-100.00,NNE,21,6.0,13.0,37,0.00,,,0.23,622.000000,,2013-04-23 01:21:00,
2013-04-22 17:52:00,52.0,25.0,-100.00,North,1,5.0,11.0,35,0.00,,,0.15,503.000000,,2013-04-23 01:52:00,
2013-04-22 18:01:00,52.0,25.0,-100.00,North,1,5.0,11.0,35,0.00,,,0.15,503.000000,,2013-04-23 02:01:00,
2013-04-22 18:12:00,52.0,25.0,-100.00,North,1,5.0,11.0,35,0.00,,,0.15,503.000000,,2013-04-23 02:12:00,
2013-04-22 18:21:00,52.0,25.0,-100.00,North,1,5.0,11.0,35,0.00,,,0.15,503.000000,,2013-04-23 02:21:00,
2013-04-22 18:52:00,50.0,25.0,-100.00,North,8,5.0,11.0,38,0.00,,,0.08,352.000000,,2013-04-23 02:52:00,
2013-04-22 19:01:00,50.0,25.0,-100.00,North,8,5.0,11.0,38,0.00,,,0.08,352.000000,,2013-04-23 03:01:00,
2013-04-22 19:11:00,50.0,25.0,-100.00,North,8,5.0,11.0,38,0.00,,,0.08,352.000000,,2013-04-23 03:11:00,
2013-04-22 19:21:00,50.0,25.0,-100.00,North,8,5.0,11.0,38,0.00,,,0.08,352.000000,,2013-04-23 03:21:00,
2013-04-22 19:53:00,47.0,25.0,-100.00,NNE,17,6.0,11.0,41,0.00,,,0.02,184.000000,,2013-04-23 03:53:00,
2013-04-22 20:03:00,47.0,25.0,-100.00,NNE,17,6.0,11.0,41,0.00,,,0.02,184.000000,,2013-04-23 04:03:00,
2013-04-22 20:12:00,47.0,25.0,-100.00,NNE,17,6.0,11.0,41,0.00,,,0.02,184.000000,,2013-04-23 04:12:00,
2013-04-22 20:23:00,47.0,25.0,-100.00,NNE,17,6.0,11.0,41,0.00,,,0.02,184.000000,,2013-04-23 04:23:00,
2013-04-22 20:53:00,44.0,23.0,-100.00,NNE,22,5.0,10.0,44,0.00,,,0.01,88.000000,,2013-04-23 04:53:00,
2013-04-22 21:02:00,44.0,23.0,-100.00,NNE,22,5.0,10.0,44,0.00,,,0.01,88.000000,,2013-04-23 05:02:00,
2013-04-22 21:12:00,44.0,23.0,-100.00,NNE,22,5.0,10.0,44,0.00,,,0.01,88.000000,,2013-04-23 05:12:00,
2013-04-22 21:21:00,44.0,23.0,-100.00,NNE,22,5.0,10.0,44,0.00,,,0.01,88.000000,,2013-04-23 05:21:00,
2013-04-22 21:52:00,41.0,24.0,-100.00,NNE,31,4.0,7.0,50,0.00,,,0.00,28.000000,,2013-04-23 05:52:00,
2013-04-22 22:01:00,41.0,24.0,-100.00,NNE,31,4.0,7.0,50,0.00,,,0.00,28.000000,,2013-04-23 06:01:00,
2013-04-22 22:12:00,41.0,24.0,-100.00,NNE,31,4.0,7.0,50,0.00,,,0.00,28.000000,,2013-04-23 06:12:00,
2013-04-22 22:21:00,41.0,24.0,-100.00,NNE,31,4.0,7.0,50,0.00,,,0.00,28.000000,,2013-04-23 06:21:00,
2013-04-22 22:52:00,39.0,25.0,-100.00,NE,35,3.0,6.0,57,0.00,,,0.00,2.000000,,2013-04-23 06:52:00,
2013-04-22 23:02:00,39.0,25.0,-100.00,NE,35,3.0,6.0,57,0.00,,,0.00,2.000000,,2013-04-23 07:02:00,
2013-04-22 23:11:00,39.0,25.0,-100.00,NE,35,3.0,6.0,57,0.00,,,0.00,2.000000,,2013-04-23 07:11:00,
2013-04-22 23:21:00,39.0,25.0,-100.00,NE,35,3.0,6.0,57,0.00,,,0.00,2.000000,,2013-04-23 07:21:00,
2013-04-22 23:52:00,37.0,25.0,-100.00,NE,42,2.0,4.0,62,0.00,,,0.00,0.000000,,2013-04-23 07:52:00,